Find Local Weather

World > North America > United States > Illinois

Bourbonnais, Illinois Regional Weather

Lat: 41.16N, Lon: 87.88W
Wx Zone: ILZ023
Warning FLW WEATHER ALERT - (More Info. Click Here) Warning
Feedback
Expires:201806180500;;708298
ASUS43 KLOT 180405
RWRIL 

ILLINOIS REGIONAL WEATHER ROUNDUP
NATIONAL WEATHER SERVICE CHICAGO/ROMEOVILLE IL
1100 PM CDT SUN JUN 17 2018

NOTE: "FAIR" INDICATES FEW OR NO CLOUDS BELOW 12,000 FEET WITH NO
SIGNIFICANT WEATHER AND/OR OBSTRUCTIONS TO VISIBILITY.

* THESE STATIONS ARE NOT UNDER NWS QUALITY CONTROL. THEY ALSO MAY NOT
  REPORT WEATHER SUCH AS PRECIPITATION OR FOG.


ILZ005-006-012>014-019>023-180500-
NORTHEAST ILLINOIS
  
CITY           SKY/WX    TMP DP  RH WIND       PRES   REMARKS
CHICAGO-OHARE  MOCLDY    85  70  60 S10       29.97R HX  89           
CHICAGO-MIDWAY FAIR      85  70  60 SW12      29.97S HX  89           
AURORA         FAIR      80  74  81 S7        29.98S HX  85           
LANSING*       FAIR      78  72  80 S6        30.01R HX  81           
JOLIET*        FAIR      80  74  82 S3        29.99S HX  85           
WAUKEGAN       FAIR      81  74  79 SW9       29.95S HX  86           
DUPAGE AIRPORT FAIR      81  73  76 S7        29.97S HX  86           
KANKAKEE*      FAIR      79  72  77 S5        30.02S HX  83           
WHEELING       FAIR      85  74  69 SW8       29.98S HX  92           
MORRIS*        FAIR      76  73  88 S5        29.98S                  
NORTHERLY ISL    N/A     85  66  53 S12         N/A  HX  87           
$$


SKY/WX - Weather  TMP - Temperature  DP - Dewpoint  RH - Relative Humidity
WIND - Wind Direction/Speed PRES - Barometric Pressure